Date,TemperatureHighF,TemperatureAvgF,TemperatureLowF,DewpointHighF,DewpointAvgF,DewpointLowF,HumidityHigh,HumidityAvg,HumidityLow,PressureMaxIn,PressureMinIn,WindSpeedMaxMPH,WindSpeedAvgMPH,GustSpeedMaxMPH,PrecipitationSumIn
2013-1-6,21.7,19.0,16.8,18.4,15.2,13.9,88,85,81,30.29,30.10,14,8,0,0.00
2013-1-7,31.3,25.7,14.7,26.7,22.0,13.0,96,86,78,30.10,30.00,17,8,0,0.00
2013-1-8,27.1,14.6,9.6,24.3,12.9,7.7,95,93,89,30.05,29.88,12,1,16,0.00
2013-1-9,34.9,28.9,25.3,29.0,24.2,21.1,85,82,78,30.42,30.27,15,8,16,0.00
2013-1-10,36.4,33.3,30.2,33.0,29.8,24.4,98,87,68,30.24,29.70,17,10,22,0.07
2013-1-11,39.1,34.9,25.4,39.0,34.4,23.0,99,98,91,29.69,29.39,31,11,37,0.00
2013-1-12,24.9,12.2,4.3,23.0,7.3,0.0,93,80,73,30.18,29.55,42,19,42,0.00
2013-1-13,11.6,5.5,0.8,4.0,0.6,-4.0,86,80,64,30.39,30.16,19,8,23,0.00
2013-1-14,22.9,12.5,3.5,14.0,7.7,1.0,90,81,67,30.52,30.38,15,5,16,0.00
2013-1-15,30.6,20.7,12.5,18.0,14.0,9.0,88,76,49,30.38,29.96,18,9,27,0.00
2013-1-16,41.7,26.6,9.9,34.0,21.9,3.0,92,82,72,30.30,29.83,26,12,30,0.00
2013-1-17,31.7,19.7,6.2,24.0,12.4,-2.0,90,74,56,30.47,30.29,14,6,20,0.00
2013-1-18,45.7,35.2,25.2,34.0,29.2,23.0,93,79,59,30.29,29.84,22,10,26,0.00
2013-1-19,43.3,28.3,5.3,33.0,21.5,-2.0,90,76,66,30.35,29.78,37,14,45,0.00
2013-1-20,9.4,5.0,0.1,4.0,-0.4,-6.0,86,78,73,30.49,30.34,19,10,27,0.00
2013-1-21,3.0,-3.6,-10.2,-5.0,-10.3,-17.0,80,73,68,30.52,30.45,21,11,27,0.00
2013-1-22,12.8,4.8,-5.9,8.0,-2.2,-11.0,82,73,61,30.52,30.32,11,4,14,0.00
2013-1-23,17.5,8.7,-6.1,12.0,2.6,-13.0,88,76,64,30.66,30.24,25,11,32,0.00
2013-1-24,14.8,3.7,-6.6,5.0,-5.0,-14.0,73,67,59,30.71,30.24,19,10,27,0.00
2013-1-25,26.9,14.5,3.0,20.0,7.8,-2.0,85,74,59,30.38,30.14,25,10,34,0.00
2013-1-26,28.6,15.0,0.7,17.0,6.8,-4.0,83,71,58,30.39,30.13,16,8,27,0.00
2013-1-27,31.4,30.0,24.9,31.0,26.4,16.0,98,87,66,30.12,29.79,13,5,20,0.12
2013-1-28,33.4,31.6,30.1,33.0,31.1,30.0,99,98,98,29.89,29.59,11,3,15,0.00
2013-1-29,32.7,28.6,20.9,33.0,27.4,19.0,99,95,91,29.78,29.58,28,10,31,0.01
2013-1-30,21.1,14.4,3.7,20.0,10.3,0.0,94,83,76,29.93,29.72,34,18,42,0.00
2013-1-31,3.1,-3.1,-8.8,-1.0,-9.2,-15.0,83,75,67,30.47,29.94,28,16,38,0.00
2013-2-1,18.7,4.6,-9.4,14.0,-1.4,-14.0,87,76,63,30.48,30.11,19,8,22,0.00
2013-2-2,30.5,15.0,3.7,27.0,11.6,1.0,95,86,78,30.27,30.04,29,9,39,0.00
2013-2-3,34.3,19.5,8.8,26.0,14.8,6.0,91,82,68,30.20,29.86,26,9,36,0.00
2013-2-4,22.0,15.9,7.4,19.0,11.7,5.0,91,83,69,30.11,29.87,19,8,22,0.00
2013-2-5,37.1,26.7,17.0,30.0,23.4,15.0,93,87,72,30.13,29.79,19,8,27,0.00
2013-2-6,43.5,30.2,16.0,35.0,26.1,14.0,95,85,66,30.13,29.88,20,7,35,0.00
2013-2-7,32.5,24.4,21.1,31.0,23.1,19.0,96,94,92,30.30,29.95,25,10,27,0.00
2013-2-8,30.4,23.6,19.7,23.0,19.9,17.0,94,86,73,30.39,30.22,20,8,27,0.00
2013-2-9,40.7,29.8,23.5,33.0,27.2,22.0,96,90,74,30.23,29.82,25,15,30,0.00
2013-2-10,35.2,31.3,25.6,35.0,30.2,23.0,98,96,89,29.82,29.23,28,11,40,0.41
2013-2-11,26.3,22.1,18.8,24.0,18.1,15.0,92,84,78,30.15,29.56,36,17,41,0.00
2013-2-12,37.3,26.3,16.8,29.0,21.8,15.0,92,83,69,30.15,29.89,16,9,20,0.00
2013-2-13,43.1,32.1,21.7,35.0,28.1,20.0,93,85,71,29.90,29.66,20,8,28,0.00
2013-2-14,34.5,25.2,11.3,31.0,21.2,4.0,93,85,71,30.29,29.70,25,13,32,0.00
2013-2-15,20.1,13.4,7.7,13.0,8.0,3.0,88,79,68,30.42,30.29,14,6,19,0.00
2013-2-16,34.4,19.5,7.5,22.0,14.4,6.0,93,82,52,30.38,30.10,11,4,14,0.00
2013-2-17,42.2,30.1,18.3,31.0,24.3,16.0,90,80,64,30.10,29.60,24,12,31,0.00
2013-2-18,36.1,24.3,4.9,32.0,19.4,0.0,87,81,72,30.01,29.57,31,16,41,0.00
2013-2-19,8.8,3.2,-4.8,1.0,-2.8,-9.0,84,76,68,30.52,30.02,30,16,38,0.00
2013-2-20,19.0,5.8,-7.2,8.0,-1.3,-11.0,83,73,54,30.55,30.42,13,6,16,0.00
2013-2-21,23.4,16.1,9.6,15.0,10.0,6.0,90,78,58,30.45,30.03,22,10,29,0.00
2013-2-22,23.3,17.6,11.3,18.0,14.6,9.0,91,87,78,30.03,29.95,15,8,19,0.00
2013-2-23,25.8,13.8,1.8,18.0,10.3,-1.0,93,86,72,30.01,29.93,9,4,11,0.00
2013-2-24,25.4,17.7,7.2,22.0,15.3,5.0,93,89,83,30.16,30.00,8,2,11,0.00
2013-2-25,29.6,23.4,19.3,27.0,21.7,18.0,96,93,84,30.17,30.04,10,4,14,0.00
2013-2-26,30.4,24.5,21.0,26.0,22.5,20.0,96,91,82,30.07,29.90,21,10,22,0.00
2013-2-27,34.1,24.0,18.8,25.0,19.9,16.0,94,84,65,30.11,29.93,26,16,35,0.00
2013-2-28,25.9,22.8,19.7,22.0,20.3,18.0,93,90,85,30.27,30.11,20,10,29,0.00
2013-3-1,23.9,19.5,11.4,20.0,15.7,9.0,93,85,73,30.43,30.26,13,8,17,0.00
2013-3-2,28.1,18.1,5.2,20.0,13.7,3.0,93,84,66,30.41,30.18,12,4,15,0.00
2013-3-3,32.6,25.3,18.0,26.0,21.2,16.0,92,84,71,30.17,29.87,24,11,32,0.00
2013-3-4,28.1,26.4,25.0,27.0,25.3,23.0,97,95,92,30.02,29.81,24,8,26,0.00
2013-3-5,28.1,23.9,20.5,27.0,20.9,18.0,95,88,81,30.39,29.99,30,14,37,0.00
2013-3-6,24.7,20.6,17.6,21.0,17.8,16.0,93,89,82,30.49,30.37,18,6,23,0.00
2013-3-7,30.6,22.5,14.0,26.0,19.8,12.0,94,89,80,30.39,30.25,16,9,25,0.00
2013-3-8,37.5,29.1,20.4,33.0,26.7,19.0,96,90,82,30.31,30.03,20,9,27,0.28
2013-3-9,39.4,35.0,30.9,39.0,34.3,30.0,98,97,94,30.02,29.66,20,9,24,0.67
2013-3-10,31.0,25.4,20.6,30.0,24.2,19.0,97,95,93,29.96,29.78,30,17,35,0.00
2013-3-11,29.1,23.7,19.0,22.0,19.4,17.0,94,84,72,29.98,29.87,20,11,27,0.00
2013-3-12,28.5,24.7,19.4,25.0,20.1,15.0,93,83,71,30.32,29.97,30,16,39,0.00
2013-3-13,27.8,20.8,13.4,21.0,16.2,11.0,90,82,71,30.48,30.30,17,7,26,0.00
2013-3-14,49.2,33.7,23.9,41.0,29.2,20.0,98,84,72,30.29,30.06,17,5,21,0.00
2013-3-15,38.0,34.5,31.4,36.0,33.0,31.0,98,94,86,30.03,29.79,13,6,17,0.00
2013-3-16,31.2,23.3,15.4,31.0,20.2,11.0,97,88,77,30.28,29.89,23,11,26,0.00
2013-3-17,31.0,21.0,10.6,28.0,16.4,7.0,89,82,74,30.29,29.81,20,12,34,0.00
2013-3-18,31.8,20.5,11.7,31.0,15.6,6.0,97,81,68,30.04,29.69,34,20,43,0.00
2013-3-19,27.7,16.0,7.0,20.0,8.7,2.0,84,74,60,30.38,30.02,22,11,32,0.00
2013-3-20,22.5,14.5,7.4,10.0,6.1,2.0,81,70,53,30.43,30.23,26,13,32,0.00
2013-3-21,27.3,17.0,4.7,15.0,9.2,2.0,89,72,57,30.23,30.06,14,4,18,0.00
2013-3-22,33.6,22.9,11.8,21.0,16.0,10.0,92,76,54,30.15,30.08,11,3,15,0.00
2013-3-23,31.8,26.8,23.0,23.0,20.1,17.0,91,77,59,30.21,30.11,13,5,17,0.00
2013-3-24,20.7,20.7,20.7,18.2,18.2,18.2,90,90,90,30.10,30.10,17,16,17,0.00
2013-3-25,30.8,25.2,20.0,21.3,19.0,17.0,88,78,66,30.36,30.25,16,12,0,0.00
2013-3-26,37.2,37.2,37.2,21.6,21.6,21.2,53,53,53,30.31,30.31,2,1,3,0.00
2013-3-27,40.9,30.5,23.7,30.0,24.0,20.5,90,78,60,30.35,30.28,12,5,12,0.00
2013-3-28,43.7,30.5,28.4,35.1,27.0,25.3,89,87,68,30.33,30.26,15,6,15,0.00
2013-4-1,34.8,31.5,24.2,18.0,15.8,13.4,76,53,41,30.35,30.31,12,7,0,0.00
2013-4-5,42.7,37.6,33.6,29.4,26.9,25.0,72,65,58,30.20,30.07,24,12,24,0.00
2013-5-14,84.0,74.8,67.8,38.6,32.8,29.0,32,22,15,29.69,29.57,18,11,24,0.00
2013-5-15,77.7,66.7,52.1,48.0,43.4,37.0,69,45,29,29.89,29.70,14,6,18,0.00
2013-5-16,83.4,66.5,47.8,61.0,47.2,37.0,94,58,20,29.87,29.71,17,5,36,0.26
2013-5-17,80.7,69.5,60.2,66.0,62.2,59.0,96,79,53,29.84,29.77,23,10,23,0.22
2013-5-18,82.5,72.4,61.5,65.0,60.8,59.0,91,69,45,29.86,29.67,18,10,25,0.00
2013-5-19,70.8,66.3,61.6,64.0,62.1,59.0,94,86,75,29.68,29.45,23,8,27,0.15
2013-5-20,69.9,62.1,55.0,59.0,55.9,53.0,95,81,57,29.52,29.43,26,11,34,0.00
2013-5-21,60.7,55.8,52.6,55.0,51.4,48.0,95,85,67,29.63,29.46,18,9,24,0.00
2013-5-22,53.7,49.8,46.1,53.0,48.3,45.0,98,94,91,29.94,29.62,18,9,21,0.08
2013-5-23,63.2,54.6,43.8,48.0,40.3,31.0,95,63,31,30.29,29.97,21,10,23,0.00
2013-5-24,71.3,57.7,44.6,53.0,43.1,37.0,76,60,35,30.31,30.09,23,10,35,0.08
2013-5-25,59.0,53.9,48.6,54.0,49.9,48.0,97,87,70,30.12,30.04,25,13,30,0.03
2013-5-26,56.6,51.2,48.2,55.0,50.5,48.0,98,97,93,30.12,29.87,30,11,35,0.99
2013-5-27,57.7,55.3,52.2,57.0,54.7,51.0,99,98,96,29.96,29.73,18,8,28,0.63
2013-5-28,71.7,60.9,55.8,63.0,58.9,56.0,100,93,71,29.73,29.64,13,4,16,0.03
2013-5-29,74.9,66.2,56.9,68.0,63.2,56.0,99,90,74,29.73,29.52,21,10,31,0.26
2013-5-30,70.7,65.7,62.2,63.0,61.4,53.0,96,86,72,29.55,29.39,31,13,41,0.02
2013-5-31,72.7,63.8,55.7,55.0,51.5,48.0,87,66,43,29.56,29.47,33,14,44,0.01
2013-6-1,62.5,56.0,50.8,58.0,51.6,46.0,97,86,76,29.97,29.53,32,11,34,0.00
2013-6-2,66.1,55.9,48.8,47.0,41.7,34.0,93,63,32,30.09,29.97,16,6,24,0.00
2013-6-3,70.6,59.3,42.2,48.0,44.6,40.0,94,62,39,30.04,29.85,21,7,31,0.00
2013-6-4,62.8,57.6,55.8,57.0,54.0,49.0,98,88,60,30.00,29.88,19,8,29,0.61
2013-6-5,63.8,58.8,54.3,57.0,52.4,48.0,99,80,62,30.00,29.92,18,7,24,0.00
2013-6-6,61.7,56.1,48.5,54.0,50.5,47.0,97,82,66,30.00,29.92,12,5,17,0.00
2013-6-7,66.7,56.0,45.7,51.0,48.5,45.0,98,78,52,30.04,29.88,8,2,13,0.00
2013-6-8,58.8,56.5,53.0,57.0,53.3,49.0,96,89,80,29.89,29.70,24,7,29,1.03
2013-6-9,68.6,62.4,57.9,62.0,59.3,56.0,98,90,74,29.76,29.58,22,7,31,0.04
2013-6-10,73.8,65.0,58.3,63.0,60.4,58.0,99,86,66,29.84,29.76,14,5,15,0.00
2013-6-11,86.5,74.1,62.7,68.0,64.6,61.0,95,74,46,29.82,29.68,20,6,25,0.00
2013-6-12,76.1,66.3,60.4,70.0,63.0,55.0,96,89,75,29.94,29.57,29,11,37,0.11
2013-6-13,78.0,66.7,53.7,56.0,53.4,50.0,92,65,43,30.08,29.95,13,6,20,0.00
2013-6-14,76.4,68.5,63.0,66.0,61.0,56.0,93,78,62,30.02,29.75,22,10,31,0.08
2013-6-15,79.7,70.3,63.2,67.0,63.5,58.0,94,80,48,29.94,29.79,18,4,21,0.04
2013-6-16,84.9,72.1,56.3,63.0,52.5,43.0,95,56,24,29.93,29.84,22,5,24,0.00
2013-6-17,82.6,72.7,63.4,59.0,53.0,45.0,76,53,28,29.94,29.86,20,6,33,0.00
2013-6-18,78.8,69.3,57.8,59.0,54.9,52.0,89,62,42,30.00,29.93,11,4,16,0.00
2013-6-19,84.2,73.9,61.9,64.0,58.5,53.0,83,61,38,29.98,29.84,23,8,24,0.00
2013-6-20,87.3,77.8,67.5,68.0,65.9,63.0,86,68,51,29.90,29.77,26,14,34,0.00
2013-6-21,88.4,77.3,63.6,73.0,69.0,59.0,91,76,51,29.85,29.71,33,11,37,0.00
2013-6-22,78.6,70.5,62.8,70.0,65.3,61.0,97,84,69,29.96,29.72,26,7,35,0.79
2013-6-23,79.4,72.9,64.9,68.0,64.4,61.8,93,76,60,29.84,29.63,26,9,34,0.01
2013-6-24,79.1,69.3,62.0,70.0,65.1,61.0,98,87,62,29.86,29.71,18,5,31,0.32
2013-6-25,86.5,76.1,67.5,72.0,68.2,65.0,97,78,54,29.74,29.62,20,7,28,0.00
2013-6-26,86.1,78.3,70.6,73.0,67.2,61.0,98,72,44,29.80,29.59,21,6,26,0.00
2013-6-27,84.9,75.4,65.9,68.0,61.8,53.0,94,65,35,29.88,29.79,19,7,32,0.00
2013-6-28,81.6,74.5,66.4,60.0,55.6,51.0,68,53,35,29.86,29.78,35,14,44,0.00
2013-6-29,77.6,68.8,62.6,61.0,56.8,49.0,91,67,39,29.92,29.76,26,11,34,0.00
2013-6-30,76.0,65.3,54.3,57.0,51.4,45.0,93,65,34,30.09,29.92,17,5,20,0.00
2013-7-1,81.8,69.1,54.6,60.0,53.8,47.0,91,62,30,30.16,30.09,12,4,19,0.00
2013-7-2,81.8,70.4,57.1,61.0,56.0,52.0,93,64,36,30.11,30.00,12,3,15,0.00
2013-7-3,82.0,70.7,56.7,61.0,56.5,53.0,97,64,37,30.02,29.89,9,2,11,0.00
2013-7-4,84.6,73.8,61.1,61.0,56.9,54.0,85,58,35,29.91,29.81,18,9,24,0.00
2013-7-5,86.3,75.9,66.0,64.0,60.1,56.0,74,59,40,29.84,29.75,21,12,32,0.00
2013-7-6,88.2,77.1,70.1,69.0,63.8,60.0,73,64,47,29.80,29.71,20,10,25,0.00
2013-7-7,89.5,78.2,68.0,76.0,67.8,64.0,92,71,54,29.85,29.75,17,5,22,0.05
2013-7-8,89.0,75.8,66.7,72.0,68.3,65.0,96,79,50,29.92,29.83,10,3,12,0.00
2013-7-9,86.8,77.7,65.7,73.0,69.4,64.0,94,77,55,29.90,29.76,20,8,39,0.08
2013-7-10,79.6,69.6,60.1,66.0,57.6,52.0,93,69,40,30.04,29.91,13,5,18,0.00
2013-7-11,82.7,70.8,58.7,60.0,57.6,56.0,95,66,43,30.07,29.91,16,6,24,0.00
2013-7-12,87.1,76.2,65.7,65.0,61.5,58.0,75,62,46,29.95,29.82,24,14,33,0.00
2013-7-13,81.9,74.4,68.4,69.0,65.0,61.0,83,73,64,29.97,29.86,19,11,26,0.04
2013-7-14,84.3,74.7,66.3,66.0,62.4,57.0,86,67,40,30.11,29.95,15,8,19,0.00
2013-7-15,85.8,77.3,62.9,70.0,64.4,60.0,90,66,46,30.17,30.07,17,5,18,0.00
2013-7-16,87.5,79.0,69.6,71.0,68.1,65.0,93,71,48,30.17,30.10,14,6,17,0.00
2013-7-17,90.1,80.0,68.4,73.0,68.9,66.0,92,71,47,30.21,30.07,14,5,18,0.00
2013-7-18,88.9,81.0,72.3,71.0,69.1,68.0,88,69,50,30.07,29.78,28,10,29,0.00
2013-7-19,84.3,78.3,61.7,71.0,64.0,56.0,91,63,41,29.87,29.73,16,7,40,0.22
2013-7-20,81.9,69.4,58.0,65.0,61.1,57.0,95,77,52,29.93,29.83,8,2,13,0.00
2013-7-21,84.3,74.2,65.7,68.0,64.5,58.0,93,74,44,29.88,29.71,10,3,18,0.00
2013-7-22,87.1,74.5,65.2,75.0,66.7,59.0,97,79,55,29.83,29.65,18,8,26,0.00
2013-7-23,73.1,64.8,57.3,59.0,56.3,54.0,93,75,53,29.98,29.82,11,5,17,0.00
2013-7-24,64.6,56.4,52.6,58.0,54.4,52.0,97,93,80,30.05,29.98,5,1,7,0.00
2013-7-25,72.1,66.4,60.8,64.5,61.0,57.5,89,83,77,29.98,29.86,9,4,11,0.00
2013-7-26,67.5,64.8,62.2,51.7,51.6,51.1,68,62,57,30.05,30.03,20,13,20,0.00
2013-7-27,56.4,56.3,56.3,47.9,47.8,47.5,73,73,73,30.09,30.09,14,11,14,0.00
2013-7-28,73.1,66.8,53.6,53.0,49.7,46.0,90,57,38,30.05,29.98,13,4,17,0.00
2013-7-29,74.0,61.7,45.7,58.0,51.8,44.0,97,72,45,30.07,30.01,15,5,23,0.00
2013-7-30,73.9,66.8,60.9,65.0,62.0,57.0,97,85,72,30.05,30.01,7,3,11,0.01
2013-7-31,79.9,67.3,54.1,65.0,58.6,53.0,98,77,47,30.09,29.99,10,3,18,0.00
2013-8-1,84.3,68.2,52.6,67.0,60.5,52.0,97,78,50,30.04,29.83,18,4,26,0.00
2013-8-2,71.2,65.0,57.4,64.0,60.2,56.0,97,85,62,30.02,29.85,11,2,14,0.14
2013-8-3,74.9,64.0,50.4,59.0,53.4,49.0,98,72,41,30.18,30.03,14,3,15,0.01
2013-8-4,77.2,65.0,49.5,59.0,54.8,48.0,96,72,49,30.19,29.96,14,4,20,0.00
2013-8-5,82.3,71.1,63.5,70.0,64.3,58.0,96,80,55,29.95,29.77,17,6,23,0.00
2013-8-6,85.1,71.4,56.8,67.0,62.2,56.0,98,76,38,29.82,29.71,16,5,20,0.00
2013-8-7,76.2,67.2,60.2,65.0,58.4,54.0,96,75,51,29.99,29.77,15,6,20,0.00
2013-8-8,74.1,63.9,57.3,65.0,58.0,52.0,95,81,71,30.02,29.93,10,4,16,0.03
2013-8-9,78.1,68.4,56.9,64.0,57.7,53.0,98,72,46,30.11,29.97,13,4,20,0.01
2013-8-10,76.3,64.1,50.1,65.0,57.9,49.0,97,82,55,30.16,30.02,11,3,15,0.11
2013-8-11,73.1,66.0,59.9,68.0,63.3,59.0,98,91,80,30.05,29.97,13,5,22,1.23
2013-8-12,77.6,65.9,54.7,62.0,56.9,52.0,99,76,41,30.05,29.99,12,4,18,0.01
2013-8-13,73.4,63.1,52.5,59.0,53.1,48.0,97,73,42,30.16,30.05,13,4,16,0.00
2013-8-14,73.6,60.5,47.1,60.0,52.9,46.0,97,79,49,30.19,30.08,10,3,14,0.00
2013-8-15,68.7,60.4,50.3,59.0,55.8,50.0,99,86,65,30.12,30.05,11,3,17,0.00
2013-8-16,71.4,61.5,49.5,58.0,55.1,49.0,98,81,60,30.18,30.11,13,3,18,0.01
2013-8-17,77.3,65.9,54.3,59.0,55.3,52.0,94,71,48,30.16,30.06,16,5,22,0.00
2013-8-18,78.0,67.0,52.4,59.0,55.5,51.0,94,69,45,30.10,29.99,20,6,24,0.00
2013-8-19,83.6,72.8,61.8,69.0,64.9,58.0,90,77,60,30.00,29.84,18,8,24,0.00
2013-8-20,85.5,76.2,66.9,75.0,70.1,65.0,93,81,67,29.86,29.79,14,7,17,0.00
2013-8-21,82.9,75.5,70.5,74.0,70.8,68.0,94,85,72,29.91,29.80,16,5,17,0.00
2013-8-22,80.2,73.4,67.4,72.0,67.6,65.0,96,83,65,30.05,29.91,13,5,19,0.16
2013-8-23,82.1,73.7,64.3,73.0,68.6,63.0,96,84,73,30.05,29.93,20,6,23,0.00
2013-8-24,86.2,75.8,69.4,74.0,70.6,68.0,96,84,65,30.00,29.89,23,12,32,0.19
2013-8-25,89.8,81.2,73.6,76.0,72.8,70.0,88,76,59,29.98,29.90,19,11,28,0.00
2013-8-26,91.0,82.0,74.3,76.0,72.8,69.0,87,75,57,29.94,29.79,21,10,26,0.00
2013-8-27,88.8,80.9,74.5,77.0,71.9,67.0,95,74,63,29.83,29.75,17,8,23,0.00
2013-8-28,91.1,80.8,71.1,78.0,74.4,71.0,98,82,62,29.91,29.82,12,3,15,0.00
2013-8-29,90.0,79.5,68.1,73.0,68.7,65.0,91,72,44,29.93,29.80,19,5,22,0.00
2013-8-30,84.4,76.8,67.9,73.0,70.2,65.0,96,81,64,29.83,29.79,14,5,17,0.00
2013-8-31,87.2,73.4,59.7,71.0,65.5,59.0,98,79,46,29.83,29.71,12,3,34,0.17
2013-9-1,75.6,67.7,57.6,67.0,60.1,55.0,96,78,57,29.97,29.74,20,7,29,0.07
2013-9-2,73.0,60.8,48.1,56.0,51.6,47.0,97,75,44,30.07,29.96,13,4,15,0.00
2013-9-3,80.2,64.6,49.3,65.0,57.2,48.0,97,79,52,30.08,29.97,9,4,17,0.01
2013-9-4,86.3,72.8,60.1,68.0,63.7,59.0,96,76,43,30.07,30.00,13,3,14,0.00
2013-9-5,83.7,74.4,64.9,69.0,64.5,62.0,90,72,56,30.11,30.03,13,5,18,0.00
2013-9-6,89.2,76.5,65.6,70.0,66.1,62.0,90,72,50,30.04,29.80,20,9,30,0.00
2013-9-7,88.6,77.7,66.2,73.0,69.8,64.0,94,78,56,29.88,29.80,14,4,19,0.00
2013-9-8,75.4,71.2,67.5,71.0,68.1,66.0,95,90,81,29.91,29.78,16,6,22,0.00
2013-9-9,91.7,77.6,67.7,71.0,68.1,66.0,98,75,44,29.79,29.63,23,9,33,0.00
2013-9-10,81.0,71.9,61.7,68.0,64.2,60.0,98,78,50,29.96,29.75,9,2,13,0.00
2013-9-11,83.8,71.8,62.1,66.0,60.0,54.0,96,70,38,30.06,29.97,17,4,18,0.00
2013-9-12,74.7,63.9,51.8,55.0,49.4,46.0,86,62,38,30.19,30.06,16,6,22,0.00
2013-9-13,71.8,59.6,42.6,50.0,45.8,41.0,94,63,39,30.23,30.06,14,3,14,0.00
2013-9-14,70.1,60.4,48.1,55.0,48.8,44.0,85,67,47,30.06,29.80,22,10,28,0.01
2013-9-15,64.7,59.5,48.4,58.0,53.9,47.0,96,82,68,30.26,29.77,19,9,25,0.01
2013-9-16,67.3,55.9,46.1,53.0,49.2,45.0,98,80,53,30.35,30.19,13,5,18,0.01
2013-9-17,61.6,55.6,49.6,61.0,54.5,47.0,99,96,89,30.21,29.88,17,9,22,0.04
2013-9-18,87.2,74.2,62.0,70.0,67.3,62.0,99,81,56,29.87,29.61,23,12,26,0.00
2013-9-19,75.0,70.3,58.7,68.0,61.9,49.0,86,75,50,29.87,29.57,23,10,30,0.00
2013-9-20,61.2,52.7,41.3,51.0,45.7,39.0,92,78,53,29.98,29.87,19,8,29,0.00
2013-9-21,73.7,55.3,36.5,48.0,40.6,35.0,95,63,27,30.02,29.87,6,2,14,0.00
2013-9-22,79.8,64.2,49.0,55.0,49.2,44.0,86,61,36,29.88,29.74,26,11,34,0.00
2013-9-23,75.8,63.0,50.8,53.0,50.0,48.0,89,65,40,29.82,29.73,23,11,35,0.00
2013-9-24,73.5,60.4,52.8,56.0,52.2,49.0,92,75,53,29.90,29.81,11,4,15,0.00
2013-9-25,75.4,62.1,46.9,57.0,51.7,45.0,97,72,42,29.91,29.75,18,6,25,0.00
2013-9-26,83.9,69.7,57.8,62.0,58.4,55.0,95,70,42,29.80,29.70,29,14,39,0.00
2013-9-27,84.7,73.7,65.0,64.0,60.8,56.0,89,66,38,29.79,29.68,30,15,43,0.13
2013-9-28,70.9,59.0,46.8,63.0,50.5,41.0,95,75,46,29.96,29.59,24,12,32,0.13
2013-9-29,76.4,60.0,44.4,46.0,43.2,40.0,85,58,31,29.98,29.78,26,10,28,0.00
2013-9-30,79.6,66.3,56.3,52.0,48.6,45.0,71,55,34,29.78,29.57,23,12,27,0.00
2013-10-1,77.7,65.3,47.5,53.0,41.6,29.0,80,48,17,29.96,29.62,17,6,23,0.00
2013-10-2,79.6,64.7,44.8,62.0,46.2,32.0,78,54,27,29.98,29.75,20,8,32,0.02
2013-10-3,66.6,60.5,56.8,61.0,58.4,56.0,98,92,81,29.84,29.74,13,5,18,0.17
2013-10-4,67.9,59.6,54.7,64.0,58.2,54.0,99,95,83,29.87,29.66,18,9,29,0.35
2013-10-5,59.2,45.8,38.0,56.0,38.1,35.0,90,75,56,29.80,29.71,21,10,29,0.00
2013-10-6,47.7,44.6,40.2,46.0,42.3,38.0,97,91,74,29.95,29.73,28,8,33,0.13
2013-10-7,71.4,53.8,39.4,49.0,42.6,37.0,92,69,38,30.01,29.94,11,4,15,0.00
2013-10-8,77.1,62.1,49.1,47.0,43.5,41.0,74,53,29,29.94,29.78,31,14,39,0.00
2013-10-9,76.2,62.8,52.7,51.0,48.1,45.0,81,61,38,29.98,29.89,19,11,29,0.00
2013-10-10,78.4,64.6,52.9,53.0,48.9,46.0,80,59,36,29.97,29.76,26,13,35,0.00
2013-10-11,72.5,61.1,49.5,59.0,52.0,42.0,85,73,47,29.77,29.52,33,16,41,0.01
2013-10-12,61.5,50.6,39.7,42.0,33.3,24.0,85,56,25,30.25,29.75,29,11,36,0.00
2013-10-13,62.8,47.0,27.7,39.0,30.5,25.0,89,57,31,30.44,30.25,8,2,11,0.00
2013-10-14,54.6,47.3,43.7,48.0,38.2,32.0,94,72,54,30.35,29.75,27,7,28,0.94
2013-10-15,53.7,46.3,42.2,52.0,44.8,41.0,97,94,92,29.93,29.64,25,15,35,0.01
2013-10-16,52.9,43.8,34.7,41.0,36.9,29.0,96,79,41,30.02,29.93,19,7,25,0.01
2013-10-17,57.7,42.2,31.7,43.0,35.0,30.0,92,78,41,29.99,29.82,22,7,27,0.00
2013-10-18,49.7,40.9,31.7,35.0,30.1,24.0,89,68,38,30.07,29.92,16,7,21,0.00
2013-10-19,51.5,39.8,30.1,40.0,31.8,25.0,95,75,47,29.92,29.76,28,9,32,0.00
2013-10-20,55.9,41.9,34.1,42.0,34.1,27.0,89,74,56,29.98,29.68,31,12,42,0.00
2013-10-21,45.9,36.3,27.5,30.0,27.2,25.0,90,71,48,30.04,29.97,18,7,26,0.00
2013-10-22,39.5,34.7,30.2,29.0,26.8,25.0,94,74,59,30.12,29.95,14,6,20,0.01
2013-10-23,37.5,33.3,28.9,33.0,28.0,23.0,95,81,64,30.19,30.08,14,6,20,0.02
2013-10-24,46.3,36.1,26.3,32.0,27.2,24.0,90,72,43,30.39,30.20,18,7,28,0.00
2013-10-25,58.5,40.6,23.6,38.0,30.9,22.0,95,71,46,30.40,29.95,36,11,41,0.00
2013-10-26,46.5,39.3,27.8,36.0,28.3,23.0,81,66,46,30.18,29.94,24,10,31,0.00
2013-10-27,59.5,40.8,25.8,37.0,30.1,22.0,87,68,42,30.10,29.83,15,6,19,0.00
2013-10-28,42.1,37.4,32.5,33.0,30.1,28.0,88,75,66,30.35,30.08,24,13,29,0.00
2013-10-29,48.6,40.3,34.4,45.0,36.4,29.0,97,86,73,30.32,30.03,16,7,20,0.15
2013-10-30,51.8,46.7,40.2,52.0,46.2,39.0,99,98,97,30.03,29.72,13,4,17,0.12
2013-10-31,41.5,38.4,35.1,39.0,36.7,34.0,97,93,88,29.72,29.47,15,8,20,0.00
2013-11-1,53.5,43.0,36.4,41.0,37.5,34.0,94,82,58,29.92,29.51,24,11,32,0.00
2013-11-2,52.5,42.2,30.8,39.0,34.5,30.0,95,76,50,30.12,29.92,18,7,22,0.00
2013-11-3,55.1,44.6,33.2,37.0,32.2,29.0,87,64,38,30.07,29.75,38,17,52,0.00
2013-11-4,50.4,43.0,28.9,42.0,35.9,27.0,91,76,57,30.17,29.77,20,8,26,0.01
2013-11-5,38.5,30.7,23.3,32.0,28.7,22.0,98,92,76,30.22,29.99,22,8,30,0.04
2013-11-6,32.5,28.7,25.4,29.0,26.1,23.0,97,90,80,30.26,30.06,16,7,27,0.01
2013-11-7,34.2,29.2,24.8,28.0,26.0,23.0,97,88,72,30.37,30.25,15,9,18,0.00
2013-11-8,51.7,39.3,26.3,41.0,31.4,22.0,85,74,54,30.27,29.68,29,12,40,0.04
2013-11-9,45.4,39.9,29.8,38.0,33.2,25.0,86,77,64,30.34,29.78,27,13,32,0.00
2013-11-10,41.7,32.1,20.6,32.0,26.2,18.0,93,79,62,30.42,30.13,12,5,18,0.00
2013-11-11,39.6,20.4,7.8,34.0,15.6,4.0,92,82,71,30.81,30.14,23,11,32,0.00
2013-11-12,27.6,14.9,1.2,15.0,8.0,-2.0,89,75,56,30.92,30.56,15,6,17,0.00
2013-11-13,51.1,36.3,21.1,31.0,23.8,12.0,73,61,45,30.56,29.95,30,12,37,0.00
2013-11-14,53.6,38.2,30.7,43.0,33.3,28.0,95,83,64,29.95,29.83,12,5,16,0.00
2013-11-15,55.3,39.5,28.3,42.0,33.7,28.0,97,81,54,29.88,29.60,16,6,23,0.01
2013-11-16,57.4,44.9,37.5,51.0,40.1,29.0,97,84,59,29.60,29.21,22,11,32,0.00
2013-11-17,47.6,41.1,36.9,38.0,35.0,30.0,94,79,63,29.95,29.35,22,10,35,0.01
2013-11-18,42.8,32.7,25.3,31.0,26.2,23.0,91,78,55,30.26,29.95,21,6,27,0.00
2013-11-19,55.6,41.7,28.7,34.0,29.7,25.0,88,65,42,30.24,29.86,32,17,39,0.00
2013-11-20,50.6,42.9,33.6,35.0,31.8,28.0,93,66,52,29.99,29.79,22,12,34,0.00
2013-11-21,33.0,21.9,15.2,32.0,18.1,12.0,96,85,75,30.61,30.00,26,14,32,0.00
2013-11-22,29.5,17.1,3.5,13.0,7.9,-1.0,84,69,44,30.74,30.60,25,8,29,0.00
2013-11-23,16.5,7.9,1.5,3.0,0.6,-2.0,85,73,50,30.95,30.75,20,7,27,0.00
2013-11-24,32.0,18.5,3.8,17.0,9.3,-1.0,80,68,50,30.81,30.15,23,12,33,0.00
2013-11-25,41.4,31.5,25.9,28.0,22.4,16.0,83,69,54,30.18,30.05,25,12,30,0.00
2013-11-26,30.7,20.6,9.2,22.0,9.9,4.0,82,64,44,30.46,30.17,28,14,36,0.00
2013-11-27,25.1,14.8,1.2,11.0,7.0,-2.0,89,73,51,30.47,30.07,22,8,26,0.00
2013-11-28,26.7,17.5,6.6,17.0,11.2,4.0,87,76,62,30.57,30.09,18,8,27,0.00
2013-11-29,36.0,21.7,5.3,24.0,15.0,2.0,89,76,57,30.57,30.17,21,9,28,0.00
2013-11-30,46.6,32.8,22.0,30.0,25.0,20.0,91,74,52,30.21,30.09,14,6,17,0.00
2013-12-1,34.9,27.9,20.8,25.0,22.5,18.0,90,80,67,30.21,29.91,9,4,12,0.00
2013-12-2,46.5,34.7,28.0,36.0,29.8,25.0,91,83,66,29.91,29.53,18,6,23,0.00
2013-12-3,33.5,30.6,26.7,33.0,29.7,25.0,98,96,86,29.75,29.57,15,8,21,0.04
2013-12-4,29.2,22.0,7.2,29.0,20.5,3.0,98,94,83,29.95,29.59,23,10,33,0.00
2013-12-5,7.2,2.5,-4.2,3.0,-2.0,-9.0,85,81,77,30.52,29.96,23,14,32,0.00
2013-12-6,-0.2,-6.1,-11.5,-5.0,-10.8,-16.0,82,80,76,30.82,30.51,16,7,18,0.00
2013-12-7,4.3,-4.5,-14.4,1.0,-9.2,-18.0,87,80,68,30.88,30.64,9,3,10,0.00
2013-12-8,11.8,8.0,2.2,8.0,5.1,0.0,90,87,84,30.62,30.14,13,6,18,0.00
2013-12-9,11.2,-1.8,-9.3,6.0,-6.5,-14.0,90,80,71,30.32,30.01,25,11,31,0.00
2013-12-10,17.2,10.4,1.7,13.0,6.1,-3.0,92,83,74,30.35,29.97,32,12,43,0.00
2013-12-11,11.7,-2.9,-10.4,9.0,-7.4,-15.0,87,81,76,30.71,30.38,20,8,30,0.00
2013-12-12,24.0,15.2,5.6,19.0,11.1,1.0,94,84,74,30.46,30.15,21,6,27,0.00
2013-12-13,20.4,13.8,6.4,17.0,11.1,4.0,93,89,85,30.27,30.09,19,8,24,0.00
2013-12-14,12.9,9.3,4.7,8.0,5.9,1.0,89,85,80,30.30,30.21,16,8,22,0.00
2013-12-15,7.4,5.0,2.0,4.0,0.9,-3.0,86,83,77,30.23,30.15,12,5,14,0.00
2013-12-16,27.1,14.3,6.2,25.0,11.5,3.0,92,88,84,30.16,30.05,15,8,22,0.00
2013-12-17,31.0,24.0,13.3,28.0,19.0,10.0,92,82,70,30.22,30.12,23,12,33,0.00
2013-12-18,37.1,28.2,12.3,31.0,23.1,10.0,91,81,71,30.12,29.75,21,6,25,0.00
2013-12-19,27.7,14.9,11.5,24.0,11.8,9.0,91,87,85,30.03,29.85,28,14,30,0.00
2013-12-20,13.3,11.0,7.8,11.0,8.3,5.0,92,88,85,30.06,29.94,21,7,22,0.00
2013-12-21,18.8,13.2,6.4,17.0,11.2,4.0,94,91,89,30.03,29.92,18,6,21,0.00
2013-12-22,10.3,5.1,-4.3,7.0,1.3,-9.0,89,84,80,30.45,30.01,20,10,26,0.00
2013-12-23,-2.7,-8.4,-14.7,-9.0,-15.5,-20.0,81,71,59,30.69,30.45,17,9,24,0.00
2013-12-24,16.3,2.6,-16.6,15.0,-2.5,-21.0,93,79,63,30.65,30.24,26,9,34,0.00
2013-12-25,30.2,21.1,14.8,27.0,18.2,12.0,94,88,69,30.28,30.18,22,8,27,0.00
2013-12-26,33.7,24.6,15.5,28.0,20.9,13.0,92,85,76,30.25,30.11,13,5,16,0.00
2013-12-27,40.1,28.3,14.1,33.0,24.6,13.0,96,86,71,30.25,30.04,22,7,27,0.00
2013-12-28,51.0,30.6,4.6,35.0,24.3,1.0,93,79,48,30.13,29.68,40,12,49,0.00
2013-12-29,4.1,-5.2,-10.9,0.0,-12.9,-18.0,84,70,56,30.44,30.14,36,13,44,0.00
2013-12-30,11.5,2.7,-9.0,8.0,-1.6,-14.0,89,82,71,30.41,30.18,12,6,21,0.00
2013-12-31,2.6,0.0,-4.6,-1.0,-3.9,-9.0,85,84,81,30.42,30.32,16,6,17,0.00
2014-1-1,-1.1,-4.2,-7.0,-7.0,-9.2,-11.0,83,79,73,30.55,30.40,14,8,16,0.00
2014-1-2,-2.9,-9.2,-15.0,-8.0,-13.7,-19.0,85,80,71,30.62,30.51,9,4,12,0.00